Skip Page Navigation
NASA JPL Caltech
NASA Logo - Jet Propulsion Laboratory + View the NASA Portal
+ Center for Near-Earth Object Studies
JPL Home Earth Solar System Stars & Galaxies Technology
JPL Solar System Dynamics
BODIES ORBITS EPHEMERIDES TOOLS PHYSICAL DATA DISCOVERY FAQ SITE MAP
IMPORTANT: The SSD Announcement email list is now available. Major changes are coming in the near future, including possible hostname and/or URL changes. To be notified of such changes, subscribe to this email list.

Please visit this page for more details.


JPL Small-Body Database Browser
Search: [ help ]  
37135 (2000 VO32)
Classification: Main-belt Asteroid          SPK-ID: 2037135
Ephemeris | Orbit Diagram | Orbital Elements | Mission Design | Physical Parameters | Discovery Circumstances | Close-Approach Data ]

[ show orbit diagram ]
Orbital Elements at Epoch 2459000.5 (2020-May-31.0) TDB
Reference: JPL 19 (heliocentric ecliptic J2000)
 Element Value Uncertainty (1-sigma)   Units 
e .1683462012557883 4.7045e-08  
a 3.115530749488539 1.6105e-08 au
q 2.591042982916544 1.491e-07 au
i 4.126349369686013 5.2338e-06 deg
node 212.9043513337437 5.0744e-05 deg
peri 165.1082327908143 5.191e-05 deg
M 234.205425400413 1.1979e-05 deg
tp 2459702.368739608888
(2022-May-02.86873961)
7.0135e-05 TDB
period 2008.614020624298
5.50
1.5575e-05
4.264e-08
d
yr
n .1792280628849282 1.3898e-09 deg/d
Q 3.640018516060534 1.8817e-08 au
  Orbit Determination Parameters
   # obs. used (total)      1097  
   data-arc span      9325 days (25.53 yr)  
   first obs. used      1994-10-10  
   last obs. used      2020-04-21  
   planetary ephem.      DE431  
   SB-pert. ephem.      SB431-N16  
   condition code      0  
   norm. resid. RMS      .51082  
   source      ORB  
   producer      Otto Matic  
   solution date      2020-May-20 08:22:08  

Additional Information
 Earth MOID = 1.59336 au 
 Jupiter MOID = 1.82751 au 
 T_jup = 3.192 
[ hide covariance matrix ]
Orbital Elements at Epoch 2456814.5 (2014-Jun-06.0) TDB
Reference: JPL 19 (heliocentric ecliptic J2000)
 Element Value Uncertainty (1-sigma)   Units 
e .1690347609442759 4.6925e-08  
q 2.588203350299084 1.4852e-07 au
tp 2457697.087459476082
(2016-Nov-04.58745948)
6.1534e-05 TDB
node 212.928724022161 5.0723e-05 deg
peri 165.7047905390024 5.1887e-05 deg
i 4.127572125289944 5.2357e-06 deg
  Orbit Determination Parameters
   # obs. used (total)      1097  
   data-arc span      9325 days (25.53 yr)  
   first obs. used      1994-10-10  
   last obs. used      2020-04-21  
   planetary ephem.      DE431  
   SB-pert. ephem.      SB431-N16  
   condition code      0  
   norm. resid. RMS      .51082  
   source      ORB  
   producer      Otto Matic  
   solution date      2020-May-20 08:22:08  

Additional Information
 Jupiter MOID = 1.82751 au 
 T_jup = 3.192 
Orbit Covariance (6×6)
  e q tp node peri i
e 2.201934988279859E-15 -6.940917278399714E-15 -3.424020841491706E-13 -4.486376768874887E-15 -8.00803501948136E-14 -6.721041400059625E-16
q -6.940917278399714E-15 2.205784420469755E-14 1.432744274260096E-12 1.453728343872644E-14 2.970205062543024E-13 2.073243467105864E-15
tp -3.424020841491706E-13 1.432744274260096E-12 3.786493462826237E-9 7.600640157642395E-12 6.79321928341059E-10 -1.091916220677519E-12
node -4.486376768874887E-15 1.453728343872644E-14 7.600640157642395E-12 2.572792735235973E-9 -2.564416375391553E-9 -6.009867252632156E-11
peri -8.00803501948136E-14 2.970205062543024E-13 6.79321928341059E-10 -2.564416375391553E-9 2.692260193152793E-9 5.973051837838197E-11
i -6.721041400059625E-16 2.073243467105864E-15 -1.091916220677519E-12 -6.009867252632156E-11 5.973051837838197E-11 2.741229705663158E-11

Ephemeris | Orbit Diagram | Orbital Elements | Mission Design | Physical Parameters | Discovery Circumstances | Close-Approach Data ]

Physical Parameter Table
Parameter Symbol Value Units Sigma Reference Notes
absolute magnitude H 14.0   n/a MPO436027  
diameter diameter 7.684 km 0.369 urn:nasa:pds:neowise_diameters_albedos::2.0[mainbelt] (http://adsabs.harvard.edu/abs/2011ApJ...741...68M)  
geometric albedo albedo 0.082   0.011 urn:nasa:pds:neowise_diameters_albedos::2.0[mainbelt] (http://adsabs.harvard.edu/abs/2011ApJ...741...68M)  

37135 (2000 VO32)          Discovered 2000-Nov-01 by LINEAR at Socorro
Reference: 20020227/Numbers.arcLast Updated: 2004-04-19

[ show close-approach data ]
Alternate Designations
 2000 VO32 = 1994 TN11 
Ephemeris | Orbit Diagram | Orbital Elements | Mission Design | Physical Parameters | Discovery Circumstances | Close-Approach Data ]
ABOUT SSD CREDITS/AWARDS PRIVACY/COPYRIGHT GLOSSARY LINKS
FirstGov 2020-May-24 22:53 UT
(server date/time)  
NASA Home Page
Site Manager:   Ryan S. Park
Webmaster  Alan B. Chamberlin